Regional Weather Roundup
Issued by NWS

Home | Current Version | Previous Version | Graphics & Text | Print | Product List | Glossary On
Versions: 1 2 3 4 5 6 7 8 9 10 11 12 13 14 15 16 17 18 19 20 21 22 23 24 25 26 27 28 29 30 31 32 33 34 35 36 37 38 39 40 41 42 43 44 45 46 47 48 49 50
000
ASUS45 KSLC 121110
RWRUT

UTAH REGIONAL WEATHER ROUNDUP
NATIONAL WEATHER SERVICE SALT LAKE CITY UT
500 AM MDT SAT JUL 12 2014

UTZ001>011-023>025-121200-

NORTHERN UTAH

CITY           SKY/WX    TMP DP  RH WIND       PRES   REMARKS
HILL AFB       CLEAR     66  55  68 E13       30.17R
LOGAN          CLEAR     58  55  90 SW7       30.18R
OGDEN          CLEAR     66  55  67 S6        30.14R
PROVO AIRPORT  CLEAR     64  57  77 E3        30.18R
SALT LAKE CITY CLEAR     69  55  60 CALM      30.12R
VERNAL         PTCLDY    63  32  31 W3        30.20R
WENDOVER       CLOUDY    79  48  34 NW12      30.14R
HEBER CITY     CLEAR     54  50  87 CALM      30.25S
WEST JORDAN    CLEAR     70  61  73 CALM      30.16R

$$

UTZ012>022-026-027-121200-

SOUTHERN UTAH

CITY           SKY/WX    TMP DP  RH WIND       PRES   REMARKS
BRYCE CANYON   CLEAR     48  44  86 W7        30.37R
CEDAR CITY     CLEAR     54  42  64 CALM      30.21R
MILFORD        CLEAR     64  51  62 S7        30.16R
MOAB/CYNLANDS  CLEAR     72  54  53 SE7       30.09S
PRICE          PTCLDY    64  51  62 N9        30.21S
ST GEORGE      SUNNY     73  46  38 SE8       30.03R

$$

REGIONAL REPORTS     COLORADO/ARIZONA

CITY           SKY/WX    TMP DP  RH WIND       PRES   REMARKS
CRAIG, CO      PTCLDY    56  56 100 SE9       30.28S
GRAND JUNCTION PTCLDY    70  51  51 CALM      30.14R
RIFLE          PTCLDY    59  57  93 CALM      30.24R
MONTROSE       PTCLDY    66  53  63 E6        30.24S
CORTEZ         CLEAR     64  55  72 E5        30.25S
PAGE, AZ       CLEAR     78  42  27 SW5       30.09S
GRAND CANYON   CLEAR     51  47  86 CALM      30.29R
KINGMAN        CLEAR     67  53  61 CALM      30.05R
FLAGSTAFF      PTCLDY    59  48  67 CALM      30.31R

$$

REGIONAL REPORTS    NEVADA/IDAHO/WYOMING

CITY           SKY/WX    TMP DP  RH WIND       PRES   REMARKS
LAS VEGAS, NV  PTCLDY    81  37  20 S10       29.91R
ELY            PTCLDY    54  49  83 S8        30.28R
ELKO           PTCLDY    58  56  93 SW7       30.20R
POCATELLO, ID  PTCLDY    60  52  74 E3        30.16R
BURLEY         MOCLDY    64  52  64 CALM      30.12R
EVANSTON, WY   CLEAR     55  51  86 N8        30.35R
ROCK SPRINGS   CLOUDY    57  51  80 E6        30.32R

$$



USA.gov is the U.S. government's official web portal to all federal, state and local government web resources and services.